| time (UTC) | temp F | wind direction | speed MPH | gust MPH | rain 1hr in | rain 24hr in | rain mn in | humidity % | barometer mb |
| 20260504174010 | 77 | 184 | 8.0 | 16.0 | 0.00 | 0.00 | 0.00 | 63 | 1014.2 |
| 20260504173506 | 76 | 208 | 8.0 | 20.0 | 0.00 | 0.00 | 0.00 | 64 | 1014.1 |
| 20260504173010 | 76 | 180 | 11.0 | 20.0 | 0.00 | 0.00 | 0.00 | 63 | 1014.1 |
| 20260504172507 | 77 | 215 | 10.0 | 16.0 | 0.00 | 0.00 | 0.00 | 63 | 1014.2 |
| 20260504172008 | 76 | 207 | 9.0 | 16.0 | 0.00 | 0.00 | 0.00 | 63 | 1014.3 |
| 20260504171508 | 76 | 187 | 7.0 | 16.0 | 0.00 | 0.00 | 0.00 | 65 | 1014.3 |
| 20260504170508 | 76 | 201 | 8.0 | 16.0 | 0.00 | 0.00 | 0.00 | 64 | 1014.5 |
| 20260504151010 | 71 | 198 | 11.0 | 17.0 | 0.00 | 0.00 | 0.00 | 68 | 1015.5 |
| 20260504150511 | 70 | 169 | 10.0 | 17.0 | 0.00 | 0.00 | 0.00 | 69 | 1015.4 |
| 20260504141010 | 66 | 168 | 8.0 | 14.0 | 0.00 | 0.00 | 0.00 | 75 | 1015.5 |
| 20260504140516 | 66 | 150 | 7.0 | 14.0 | 0.00 | 0.00 | 0.00 | 75 | 1015.5 |
| 20260504130508 | 60 | 158 | 4.0 | 8.0 | 0.00 | 0.00 | 0.00 | 81 | 1015.2 |
| 20260504100508 | 58 | 179 | 1.0 | 4.0 | 0.00 | 0.01 | 0.00 | 86 | 1015.3 |
| 20260504081510 | 60 | 159 | 5.0 | 7.0 | 0.00 | 0.01 | 0.00 | 80 | 1015.6 |
| 20260504081008 | 60 | 151 | 4.0 | 7.0 | 0.00 | 0.01 | 0.00 | 80 | 1015.6 |
| 20260504080507 | 60 | 172 | 4.0 | 7.0 | 0.00 | 0.01 | 0.00 | 80 | 1015.8 |
| 20260504050511 | 62 | 184 | 3.0 | 6.0 | 0.00 | 0.01 | 0.00 | 74 | 1017.7 |
| 20260504050016 | 62 | 161 | 3.0 | 8.0 | 0.00 | 0.01 | 0.00 | 73 | 1017.8 |
| 20260504045509 | 63 | 157 | 3.0 | 8.0 | 0.00 | 0.01 | 0.01 | 73 | 1017.8 |
| 20260504045009 | 63 | 167 | 3.0 | 8.0 | 0.00 | 0.01 | 0.01 | 72 | 1017.7 |
| 20260504044532 | 63 | 175 | 2.0 | 5.0 | 0.00 | 0.01 | 0.01 | 72 | 1017.8 |
| 20260504044007 | 63 | 159 | 3.0 | 7.0 | 0.00 | 0.01 | 0.01 | 71 | 1017.7 |
| 20260504043508 | 64 | 162 | 3.0 | 9.0 | 0.00 | 0.01 | 0.01 | 70 | 1017.7 |
| 20260504043030 | 64 | 153 | 5.0 | 9.0 | 0.00 | 0.01 | 0.01 | 69 | 1017.8 |
| 20260504042508 | 64 | 163 | 3.0 | 9.0 | 0.00 | 0.01 | 0.01 | 69 | 1017.9 |
| 20260504042007 | 64 | 179 | 4.0 | 9.0 | 0.00 | 0.01 | 0.01 | 68 | 1017.9 |
| 20260504041518 | 64 | 165 | 4.0 | 8.0 | 0.00 | 0.01 | 0.01 | 68 | 1017.9 |
| 20260504041010 | 65 | 178 | 5.0 | 10.0 | 0.00 | 0.01 | 0.01 | 67 | 1017.9 |
| 20260504040510 | 65 | 163 | 4.0 | 11.0 | 0.00 | 0.01 | 0.01 | 66 | 1018.0 |
| 20260504040022 | 65 | 163 | 5.0 | 11.0 | 0.00 | 0.01 | 0.01 | 65 | 1017.9 |
| 20260504035511 | 65 | 180 | 5.0 | 9.0 | 0.00 | 0.01 | 0.01 | 65 | 1017.8 |
| 20260504035010 | 65 | 179 | 3.0 | 9.0 | 0.00 | 0.01 | 0.01 | 64 | 1017.9 |
| 20260504034526 | 65 | 188 | 4.0 | 9.0 | 0.00 | 0.01 | 0.01 | 63 | 1017.8 |
| 20260504034017 | 65 | 168 | 4.0 | 11.0 | 0.00 | 0.01 | 0.01 | 63 | 1017.9 |
| 20260504033509 | 65 | 158 | 5.0 | 11.0 | 0.00 | 0.01 | 0.01 | 62 | 1017.8 |
| 20260504033023 | 65 | 135 | 4.0 | 9.0 | 0.00 | 0.01 | 0.01 | 63 | 1017.7 |
| 20260504032507 | 65 | 158 | 3.0 | 4.0 | 0.00 | 0.01 | 0.01 | 61 | 1017.6 |
| 20260504032013 | 65 | 142 | 2.0 | 4.0 | 0.00 | 0.01 | 0.01 | 62 | 1017.6 |
| 20260504031516 | 65 | 153 | 2.0 | 4.0 | 0.00 | 0.01 | 0.01 | 60 | 1017.7 |
| 20260504031007 | 65 | 146 | 3.0 | 4.0 | 0.00 | 0.01 | 0.01 | 61 | 1017.7 |
| 20260504030508 | 66 | 159 | 2.0 | 4.0 | 0.00 | 0.01 | 0.01 | 60 | 1017.6 |
| 20260504030021 | 66 | 145 | 2.0 | 4.0 | 0.00 | 0.01 | 0.01 | 60 | 1017.6 |
| 20260504025509 | 66 | 128 | 2.0 | 4.0 | 0.00 | 0.01 | 0.01 | 60 | 1017.6 |
| 20260504025005 | 66 | 159 | 2.0 | 6.0 | 0.00 | 0.01 | 0.01 | 59 | 1017.7 |
| 20260504024504 | 66 | 154 | 2.0 | 6.0 | 0.00 | 0.01 | 0.01 | 59 | 1017.6 |
| 20260504024003 | 67 | 161 | 3.0 | 5.0 | 0.00 | 0.01 | 0.01 | 59 | 1017.6 |
| 20260504023503 | 67 | 171 | 2.0 | 5.0 | 0.00 | 0.01 | 0.01 | 59 | 1017.7 |
| 20260504023007 | 67 | 148 | 2.0 | 6.0 | 0.00 | 0.01 | 0.01 | 59 | 1017.7 |
| 20260504022503 | 67 | 151 | 2.0 | 6.0 | 0.00 | 0.01 | 0.01 | 60 | 1017.6 |
| 20260504022014 | 67 | 175 | 3.0 | 6.0 | 0.00 | 0.01 | 0.01 | 59 | 1017.5 |
| 20260504021535 | 67 | 136 | 3.0 | 6.0 | 0.00 | 0.01 | 0.01 | 59 | 1017.5 |
| 20260504020527 | 67 | 148 | 3.0 | 5.0 | 0.00 | 0.01 | 0.01 | 59 | 1017.4 |
| 20260504020045 | 67 | 156 | 2.0 | 4.0 | 0.00 | 0.01 | 0.01 | 59 | 1017.4 |
| 20260504015505 | 68 | 145 | 2.0 | 4.0 | 0.00 | 0.01 | 0.01 | 58 | 1017.3 |
| 20260504015035 | 68 | 146 | 3.0 | 4.0 | 0.00 | 0.01 | 0.01 | 58 | 1017.3 |
| 20260504014555 | 68 | 146 | 2.0 | 3.0 | 0.00 | 0.01 | 0.01 | 57 | 1017.2 |
| 20260504014004 | 68 | 137 | 2.0 | 3.0 | 0.00 | 0.01 | 0.01 | 57 | 1017.3 |
| 20260504013507 | 69 | 138 | 1.0 | 3.0 | 0.00 | 0.01 | 0.01 | 55 | 1017.3 |
| 20260504013011 | 69 | 134 | 1.0 | 3.0 | 0.00 | 0.01 | 0.01 | 56 | 1017.3 |
| 20260504012505 | 69 | 147 | 1.0 | 3.0 | 0.00 | 0.01 | 0.01 | 55 | 1017.1 |
| 20260504012003 | 69 | 157 | 1.0 | 3.0 | 0.00 | 0.01 | 0.01 | 55 | 1017.2 |
| 20260504011511 | 70 | 161 | 1.0 | 5.0 | 0.00 | 0.01 | 0.01 | 53 | 1017.1 |
| 20260504011004 | 70 | 138 | 2.0 | 5.0 | 0.00 | 0.01 | 0.01 | 53 | 1017.2 |
| 20260504010510 | 71 | 152 | 3.0 | 5.0 | 0.00 | 0.01 | 0.01 | 52 | 1017.2 |
| 20260504010010 | 71 | 167 | 3.0 | 5.0 | 0.00 | 0.01 | 0.01 | 52 | 1017.1 |
| 20260504005508 | 71 | 151 | 2.0 | 5.0 | 0.00 | 0.01 | 0.01 | 52 | 1017.1 |
| 20260504005003 | 72 | 142 | 2.0 | 5.0 | 0.00 | 0.01 | 0.01 | 51 | 1017.2 |
| 20260504004514 | 72 | 147 | 2.0 | 5.0 | 0.00 | 0.01 | 0.01 | 50 | 1017.2 |
| 20260504004004 | 72 | 144 | 1.0 | 4.0 | 0.00 | 0.01 | 0.01 | 50 | 1017.2 |
| 20260504003504 | 72 | 159 | 1.0 | 5.0 | 0.00 | 0.01 | 0.01 | 49 | 1017.2 |
| 20260504003029 | 73 | 142 | 3.0 | 7.0 | 0.00 | 0.01 | 0.01 | 47 | 1017.3 |
| 20260504002505 | 73 | 144 | 3.0 | 7.0 | 0.00 | 0.01 | 0.01 | 46 | 1017.4 |
| 20260504002003 | 73 | 184 | 3.0 | 7.0 | 0.00 | 0.01 | 0.01 | 47 | 1017.4 |
| 20260504001504 | 74 | 151 | 3.0 | 7.0 | 0.00 | 0.01 | 0.01 | 46 | 1017.5 |
| 20260504001004 | 74 | 162 | 4.0 | 7.0 | 0.00 | 0.01 | 0.01 | 45 | 1017.6 |
| 20260504000507 | 74 | 157 | 4.0 | 9.0 | 0.00 | 0.01 | 0.01 | 44 | 1017.7 |
| 20260504000032 | 74 | 168 | 3.0 | 9.0 | 0.00 | 0.01 | 0.01 | 44 | 1017.7 |
| 20260503235509 | 75 | 175 | 5.0 | 9.0 | 0.00 | 0.01 | 0.01 | 44 | 1017.7 |
| 20260503235007 | 75 | 172 | 4.0 | 8.0 | 0.00 | 0.01 | 0.01 | 44 | 1017.6 |
| 20260503234512 | 76 | 146 | 4.0 | 8.0 | 0.00 | 0.01 | 0.01 | 43 | 1017.7 |
| 20260503234005 | 76 | 151 | 4.0 | 8.0 | 0.00 | 0.01 | 0.01 | 42 | 1017.7 |
| 20260503233504 | 76 | 169 | 5.0 | 9.0 | 0.00 | 0.01 | 0.01 | 41 | 1017.6 |
| 20260503233011 | 76 | 172 | 4.0 | 9.0 | 0.00 | 0.01 | 0.01 | 43 | 1017.8 |
| 20260503232510 | 76 | 173 | 4.0 | 9.0 | 0.00 | 0.01 | 0.01 | 42 | 1017.7 |
| 20260503232004 | 77 | 217 | 5.0 | 9.0 | 0.00 | 0.01 | 0.01 | 44 | 1017.6 |
| 20260503231509 | 77 | 227 | 5.0 | 10.0 | 0.00 | 0.01 | 0.01 | 42 | 1017.8 |
| 20260503231006 | 76 | 180 | 4.0 | 10.0 | 0.00 | 0.01 | 0.01 | 42 | 1017.9 |
| 20260503230507 | 77 | 184 | 5.0 | 10.0 | 0.00 | 0.01 | 0.01 | 44 | 1017.9 |
| 20260503230012 | 77 | 161 | 5.0 | 10.0 | 0.00 | 0.01 | 0.01 | 42 | 1017.9 |
| 20260503225511 | 77 | 175 | 5.0 | 9.0 | 0.00 | 0.01 | 0.01 | 42 | 1017.9 |
| 20260503225009 | 77 | 162 | 3.0 | 10.0 | 0.00 | 0.01 | 0.01 | 43 | 1017.9 |
| 20260503224509 | 77 | 202 | 4.0 | 12.0 | 0.00 | 0.01 | 0.01 | 40 | 1017.9 |
| 20260503224009 | 77 | 186 | 7.0 | 12.0 | 0.00 | 0.01 | 0.01 | 40 | 1018.0 |
| 20260503223507 | 77 | 159 | 6.0 | 13.0 | 0.00 | 0.01 | 0.01 | 41 | 1018.0 |
| 20260503223018 | 77 | 163 | 8.0 | 13.0 | 0.00 | 0.01 | 0.01 | 41 | 1018.1 |
| 20260503222505 | 77 | 153 | 4.0 | 11.0 | 0.00 | 0.01 | 0.01 | 41 | 1018.2 |
| 20260503222007 | 77 | 170 | 4.0 | 12.0 | 0.00 | 0.01 | 0.01 | 40 | 1018.1 |
| 20260503221513 | 78 | 165 | 6.0 | 12.0 | 0.00 | 0.01 | 0.01 | 42 | 1018.2 |
| 20260503221006 | 78 | 153 | 7.0 | 11.0 | 0.00 | 0.01 | 0.01 | 39 | 1018.2 |
| 20260503220504 | 78 | 142 | 5.0 | 9.0 | 0.00 | 0.01 | 0.01 | 42 | 1018.4 |
| 20260503220010 | 77 | 137 | 5.0 | 10.0 | 0.00 | 0.01 | 0.01 | 39 | 1018.4 |
| 20260503215507 | 78 | 167 | 6.0 | 10.0 | 0.00 | 0.01 | 0.01 | 38 | 1018.6 |
| 20260503215011 | 78 | 157 | 3.0 | 10.0 | 0.00 | 0.01 | 0.01 | 43 | 1018.5 |
| 20260503214524 | 78 | 159 | 6.0 | 10.0 | 0.00 | 0.01 | 0.01 | 42 | 1018.6 |
| 20260503214007 | 78 | 173 | 4.0 | 10.0 | 0.00 | 0.01 | 0.01 | 39 | 1018.9 |
| 20260503213507 | 78 | 160 | 4.0 | 14.0 | 0.00 | 0.01 | 0.01 | 41 | 1019.0 |
| 20260503213017 | 77 | 190 | 6.0 | 14.0 | 0.00 | 0.01 | 0.01 | 41 | 1019.2 |
| 20260503212512 | 77 | 169 | 6.0 | 10.0 | 0.00 | 0.01 | 0.01 | 38 | 1019.3 |
| 20260503212009 | 78 | 151 | 2.0 | 11.0 | 0.00 | 0.01 | 0.01 | 41 | 1019.4 |
| 20260503211515 | 78 | 182 | 6.0 | 11.0 | 0.00 | 0.01 | 0.01 | 40 | 1019.4 |
| 20260503211010 | 78 | 142 | 7.0 | 12.0 | 0.00 | 0.01 | 0.01 | 39 | 1019.3 |
| 20260503210505 | 78 | 168 | 5.0 | 12.0 | 0.00 | 0.01 | 0.01 | 42 | 1019.3 |
| 20260503210035 | 78 | 188 | 5.0 | 12.0 | 0.00 | 0.01 | 0.01 | 42 | 1019.4 |
| 20260503205511 | 78 | 174 | 6.0 | 10.0 | 0.00 | 0.01 | 0.01 | 42 | 1019.4 |
| 20260503205007 | 78 | 137 | 5.0 | 10.0 | 0.00 | 0.01 | 0.01 | 41 | 1019.5 |
| 20260503204518 | 77 | 148 | 5.0 | 13.0 | 0.00 | 0.01 | 0.01 | 43 | 1019.8 |
| 20260503204010 | 77 | 187 | 7.0 | 13.0 | 0.00 | 0.01 | 0.01 | 40 | 1019.7 |
| 20260503203507 | 78 | 193 | 7.0 | 11.0 | 0.00 | 0.01 | 0.01 | 42 | 1019.8 |
| 20260503203018 | 78 | 187 | 3.0 | 14.0 | 0.00 | 0.01 | 0.01 | 40 | 1019.9 |
| 20260503202508 | 78 | 183 | 6.0 | 14.0 | 0.00 | 0.01 | 0.01 | 43 | 1019.9 |
| 20260503202011 | 78 | 130 | 6.0 | 15.0 | 0.00 | 0.01 | 0.01 | 37 | 1020.0 |
| 20260503201519 | 78 | 179 | 8.0 | 15.0 | 0.00 | 0.01 | 0.01 | 39 | 1020.1 |
| 20260503201007 | 78 | 181 | 5.0 | 13.0 | 0.00 | 0.01 | 0.01 | 44 | 1020.1 |
| 20260503200508 | 78 | 239 | 4.0 | 12.0 | 0.00 | 0.01 | 0.01 | 39 | 1020.3 |
| 20260503200021 | 78 | 189 | 7.0 | 11.0 | 0.00 | 0.01 | 0.01 | 40 | 1020.3 |
| 20260503195507 | 78 | 188 | 5.0 | 11.0 | 0.00 | 0.01 | 0.01 | 38 | 1020.3 |
| 20260503195007 | 77 | 206 | 4.0 | 11.0 | 0.00 | 0.01 | 0.01 | 39 | 1020.4 |
| 20260503194515 | 77 | 143 | 6.0 | 11.0 | 0.00 | 0.01 | 0.01 | 39 | 1020.4 |
| 20260503194007 | 77 | 136 | 6.0 | 11.0 | 0.00 | 0.01 | 0.01 | 38 | 1020.5 |
| 20260503193506 | 78 | 153 | 5.0 | 12.0 | 0.00 | 0.01 | 0.01 | 38 | 1020.6 |
| 20260503193016 | 77 | 219 | 6.0 | 12.0 | 0.00 | 0.01 | 0.01 | 38 | 1020.7 |
| 20260503192510 | 77 | 98 | 5.0 | 12.0 | 0.00 | 0.01 | 0.01 | 38 | 1020.8 |
| 20260503192008 | 77 | 157 | 3.0 | 12.0 | 0.00 | 0.01 | 0.01 | 35 | 1020.8 |
| 20260503191513 | 78 | 197 | 6.0 | 9.0 | 0.00 | 0.01 | 0.01 | 41 | 1020.9 |
| 20260503191009 | 78 | 123 | 2.0 | 14.0 | 0.00 | 0.01 | 0.01 | 42 | 1021.0 |
| 20260503190507 | 77 | 186 | 7.0 | 14.0 | 0.00 | 0.01 | 0.01 | 39 | 1021.2 |
| 20260503190022 | 77 | 141 | 5.0 | 13.0 | 0.00 | 0.01 | 0.01 | 41 | 1021.3 |
| 20260503185506 | 77 | 164 | 6.0 | 11.0 | 0.00 | 0.01 | 0.01 | 36 | 1021.3 |
| 20260503185013 | 77 | 219 | 7.0 | 11.0 | 0.00 | 0.01 | 0.01 | 42 | 1021.3 |
| 20260503184521 | 77 | 202 | 5.0 | 10.0 | 0.00 | 0.01 | 0.01 | 40 | 1021.4 |
| 20260503184008 | 77 | 140 | 4.0 | 9.0 | 0.00 | 0.01 | 0.01 | 41 | 1021.4 |
| 20260503183508 | 77 | 150 | 6.0 | 9.0 | 0.00 | 0.01 | 0.01 | 38 | 1021.7 |
| 20260503183024 | 77 | 160 | 3.0 | 11.0 | 0.00 | 0.01 | 0.01 | 47 | 1021.7 |
| 20260503182507 | 77 | 146 | 5.0 | 13.0 | 0.00 | 0.01 | 0.01 | 44 | 1021.9 |
| 20260503182010 | 76 | 106 | 7.0 | 13.0 | 0.00 | 0.01 | 0.01 | 43 | 1021.9 |
| 20260503181520 | 76 | 180 | 5.0 | 12.0 | 0.00 | 0.01 | 0.01 | 42 | 1022.0 |
| 20260503181009 | 77 | 240 | 5.0 | 8.0 | 0.00 | 0.01 | 0.01 | 46 | 1022.1 |
| 20260503180507 | 77 | 222 | 4.0 | 10.0 | 0.00 | 0.01 | 0.01 | 45 | 1022.2 |
| 20260503180020 | 76 | 177 | 5.0 | 10.0 | 0.00 | 0.01 | 0.01 | 41 | 1022.2 |
| 20260503175508 | 76 | 183 | 5.0 | 10.0 | 0.00 | 0.01 | 0.01 | 42 | 1022.3 |
| 20260503175008 | 76 | 227 | 5.0 | 12.0 | 0.00 | 0.01 | 0.01 | 45 | 1022.4 |
| 20260503174520 | 76 | 217 | 5.0 | 15.0 | 0.00 | 0.01 | 0.01 | 46 | 1022.5 |